Weather History for Battle Creek, MI

Change the Weather History Date:

Friday, September 13, 2013

  Actual Average Record
Temperature  
Mean Temperature 52 °F 63 °F  
Max Temperature 60 °F 75 °F 91 °F (2005)
Min Temperature 43 °F 51 °F 43 °F (2013)
Degree Days  
Heating Degree Days 13 4  
Month to date heating degree days 17 36  
Since 1 July heating degree days 55 77  
Cooling Degree Days 0 2  
Month to date cooling degree days 64 36  
Year to date cooling degree days 669 554  
Growing Degree Days 3 (Base 50)    
Moisture  
Dew Point 43 °F    
Average Humidity 71    
Maximum Humidity 92    
Minimum Humidity 49    
Precipitation  
Precipitation 0.00 in 0.12 in 3.98 in (2008)
Month to date precipitation 1.21 1.54  
Year to date precipitation 27.38 23.08  
Sea Level Pressure  
Sea Level Pressure 30.12 in    
Wind  
Wind Speed 7 mph (North)    
Max Wind Speed 18 mph    
Max Gust Speed 25 mph    
Visibility 10 miles    
Events      
T = Trace of Precipitation, MM = Missing Value Source: NWS Daily Summary

Daily Weather History Graph

Daily Weather History Graph

Search for Another Location

Airport:

Trip Planner

Search our weather history database for the weather conditions in past years. The results will help you decide how hot, cold, wet, or windy it might be!

Date:

Astronomy

Sep. 13, 2013 Rise Set
Actual Time 7:19 AM EDT 7:53 PM EDT
Civil Twilight 6:50 AM EDT 8:21 PM EDT
Nautical Twilight 6:17 AM EDT 8:55 PM EDT
Astronomical Twilight 5:42 AM EDT 9:29 PM EDT
Moon 3:47 PM EDT (9/13) 12:42 AM EDT (9/13)
Length of Visible Light 13h 31m
Length of Day
12h 34m
First Quarter, 61% of the Moon is Illuminated
Sep 13
First Quarter
Sep 19
Full
Sep 26
Last Quarter
Oct 4
New
Oct 11
First Quarter

Hourly Weather History & Observations

Time (EDT) Temp. Dew Point Humidity Pressure Visibility Wind Dir Wind Speed Gust Speed Precip Events Conditions
12:53 AM 55.0 °F 46.9 °F 74% 30.04 in 10.0 mi NNW 10.4 mph - N/A   Partly Cloudy
1:53 AM 53.1 °F 45.0 °F 74% 30.04 in 10.0 mi NNW 8.1 mph - N/A   Clear
2:53 AM 52.0 °F 45.0 °F 77% 30.04 in 10.0 mi NNW 9.2 mph - N/A   Clear
3:53 AM 51.1 °F 44.1 °F 77% 30.05 in 10.0 mi NNW 8.1 mph - N/A   Clear
4:53 AM 51.1 °F 44.1 °F 77% 30.05 in 10.0 mi NNW 8.1 mph - N/A   Scattered Clouds
5:53 AM 50.0 °F 43.0 °F 77% 30.06 in 10.0 mi North 8.1 mph - N/A   Clear
6:53 AM 48.9 °F 43.0 °F 80% 30.08 in 10.0 mi North 8.1 mph - N/A   Clear
7:53 AM 48.9 °F 44.1 °F 83% 30.10 in 10.0 mi North 5.8 mph - N/A   Clear
8:53 AM 51.1 °F 45.0 °F 80% 30.11 in 10.0 mi North 8.1 mph - N/A   Mostly Cloudy
9:15 AM 51.8 °F 44.6 °F 76% 30.10 in 10.0 mi North 15.0 mph - N/A   Mostly Cloudy
9:29 AM 53.6 °F 44.6 °F 72% 30.11 in 10.0 mi North 15.0 mph 21.9 mph N/A   Scattered Clouds
9:53 AM 54.0 °F 44.1 °F 69% 30.11 in 10.0 mi NNE 18.4 mph 23.0 mph N/A   Mostly Cloudy
10:42 AM 53.6 °F 42.8 °F 67% 30.12 in 10.0 mi North 13.8 mph - N/A   Overcast
10:53 AM 53.1 °F 43.0 °F 69% 30.13 in 10.0 mi NNE 11.5 mph - N/A   Overcast
11:37 AM 53.6 °F 42.8 °F 67% 30.13 in 10.0 mi NNE 13.8 mph - N/A   Overcast
11:44 AM 53.6 °F 42.8 °F 67% 30.14 in 10.0 mi North 10.4 mph 20.7 mph N/A   Overcast
11:53 AM 54.0 °F 43.0 °F 66% 30.14 in 10.0 mi NNE 11.5 mph - N/A   Overcast
12:21 PM 53.6 °F 42.8 °F 67% 30.13 in 10.0 mi NNE 13.8 mph 20.7 mph N/A   Overcast
12:31 PM 55.4 °F 42.8 °F 63% 30.14 in 10.0 mi North 11.5 mph - N/A   Overcast
12:43 PM 53.6 °F 42.8 °F 67% 30.14 in 10.0 mi NNE 8.1 mph - N/A   Overcast
12:51 PM 55.4 °F 42.8 °F 63% 30.14 in 10.0 mi NNE 8.1 mph - N/A   Overcast
12:53 PM 55.0 °F 43.0 °F 64% 30.14 in 10.0 mi NNE 8.1 mph - N/A   Overcast
1:05 PM 55.4 °F 42.8 °F 63% 30.14 in 10.0 mi NNE 10.4 mph - N/A   Overcast
1:14 PM 55.4 °F 42.8 °F 63% 30.14 in 10.0 mi North 9.2 mph - N/A   Overcast
1:53 PM 55.9 °F 42.1 °F 60% 30.14 in 10.0 mi North 8.1 mph - N/A   Overcast
2:53 PM 57.0 °F 42.1 °F 57% 30.13 in 10.0 mi North 8.1 mph - N/A   Overcast
3:53 PM 59.0 °F 42.1 °F 53% 30.12 in 10.0 mi NNW 8.1 mph - N/A   Scattered Clouds
4:53 PM 59.0 °F 41.0 °F 51% 30.12 in 10.0 mi North 5.8 mph - N/A   Partly Cloudy
5:53 PM 60.1 °F 41.0 °F 49% 30.12 in 10.0 mi NNE 9.2 mph - N/A   Scattered Clouds
6:53 PM 57.9 °F 39.9 °F 51% 30.12 in 10.0 mi NE 8.1 mph - N/A   Clear
7:53 PM 54.0 °F 41.0 °F 62% 30.14 in 10.0 mi ENE 4.6 mph - N/A   Clear
8:53 PM 53.1 °F 41.0 °F 64% 30.15 in 10.0 mi Calm Calm - N/A   Clear
9:53 PM 48.9 °F 42.1 °F 77% 30.16 in 10.0 mi Calm Calm - N/A   Clear
10:53 PM 46.9 °F 41.0 °F 80% 30.16 in 10.0 mi Calm Calm - N/A   Clear
11:53 PM 45.0 °F 42.1 °F 90% 30.15 in 10.0 mi Calm Calm - N/A   Clear